Location: Newark
(43.4306°N, 0.3089°E)
Time: 15:47:13
(UTC+00:00)

SR - Pass Details

Date: 30 August 2019
Orbit: 576 x 880 km, 66.7° (Epoch: 22 September)

Event Time Altitude Azimuth Distance (km) Brightness Sun altitude
Rises 20:21:20 0° 319° (NW) 3,335 ? -18.1°
Reaches altitude 10° 20:23:58 10° 309° (NW) 2,440 ? -18.5°
Maximum altitude 20:28:51 30° 250° (WSW) 1,482 ? -19.2°
Drops below altitude 10° 20:33:53 10° 191° (S) 2,520 ? -20.0°
Enters shadow 20:34:26 - 188° (S) 2,699 ? -20.1°
